Starlink 6301

operational
NORAD ID: 56392 Int'l Des: 2023-061 Owner: SPXS Country: US Constellation: starlink
LEOCIRCULAR

关于 Starlink 6301

正在加载描述...

实时位置

正在加载3D地球...

即将过境

高度历史

Altitude vs Time

uPlot chart will show altitude changes over time

两行轨道根数

1 56392U 23061U 25305.62228538 .00000245 00000-0 33210-4 0 9992
2 56392 43.0051 160.8980 0001203 276.4702 83.6003 15.02534135137635
Epoch: Nov 1, 2025 • Age: 6 hours

当前状态

高度 566.1 km
速度 7.58 km/s
星下点 -28.74°S, 23.25°E
发射日期 May 4, 2023
运行时间 2.4 years
类型 internet

技术详情

分类 Payload
质量 305.00 kg
干质量 290.00 kg
总质量 305.00 kg
长度 0.20 m
直径 2.80 m
跨度 9.00 m
形状 Box + pan
制造商 SPXS
平台类型 Starlink
阶段状态 In Orbit
所有者/国家 SPXS/US

大型星座

Loading constellations...